date;y;x1;x2
26.6.2014;77.00076;76.18793;75.80135
27.6.2014;76.8719;77.00076;76.18793
30.6.2014;77.31797;76.8719;77.00076
1.7.2014;77.1098;77.31797;76.8719
2.7.2014;77.76403;77.1098;77.31797
3.7.2014;77.96229;77.76403;77.1098
7.7.2014;76.99085;77.96229;77.76403
8.7.2014;78.00194;76.99085;77.96229
9.7.2014;76.82234;78.00194;76.99085
10.7.2014;76.61417;76.82234;78.00194
11.7.2014;77.2684;76.61417;76.82234
14.7.2014;77.3477;77.2684;76.61417
15.7.2014;76.24741;77.3477;77.2684
16.7.2014;75.86082;76.24741;77.3477
17.7.2014;76.84216;75.86082;76.24741
18.7.2014;76.14828;76.84216;75.86082
21.7.2014;76.36636;76.14828;76.84216
22.7.2014;76.69348;76.36636;76.14828
23.7.2014;77.91272;76.69348;76.36636
24.7.2014;77.04042;77.91272;76.69348
25.7.2014;77.71447;77.04042;77.91272
28.7.2014;77.41709;77.71447;77.04042
29.7.2014;78.91389;77.41709;77.71447
30.7.2014;76.45557;78.91389;77.41709
31.7.2014;76.10863;76.45557;78.91389
1.8.2014;76.48531;76.10863;76.45557
4.8.2014;76.24741;76.48531;76.10863
5.8.2014;76.46548;76.24741;76.48531
6.8.2014;75.6824;76.46548;76.24741
7.8.2014;76.38618;75.6824;76.46548
8.8.2014;76.38618;76.38618;75.6824
11.8.2014;76.05907;76.38618;76.38618
12.8.2014;76.57452;76.05907;76.38618
13.8.2014;76.62409;76.57452;76.05907
14.8.2014;76.45557;76.62409;76.57452
15.8.2014;77.86316;76.45557;76.62409
18.8.2014;77.82351;77.86316;76.45557
19.8.2014;78.22002;77.82351;77.86316
20.8.2014;78.24975;78.22002;77.82351
21.8.2014;78.59669;78.24975;78.22002
22.8.2014;79.31039;78.59669;78.24975
25.8.2014;78.78503;79.31039;78.59669
26.8.2014;79.02293;78.78503;79.31039
27.8.2014;78.36672;79.02293;78.78503
28.8.2014;78.09828;78.36672;79.02293
29.8.2014;78.82407;78.09828;78.36672
2.9.2014;78.36672;78.82407;78.09828
3.9.2014;79.4604;78.36672;78.82407
4.9.2014;81.56821;79.4604;78.36672
5.9.2014;81.92614;81.56821;79.4604
8.9.2014;81.36935;81.92614;81.56821
9.9.2014;81.99574;81.36935;81.92614
10.9.2014;81.34947;81.99574;81.36935
11.9.2014;81.36935;81.34947;81.99574
12.9.2014;81.14068;81.36935;81.34947
15.9.2014;80.73303;81.14068;81.36935
16.9.2014;81.04126;80.73303;81.14068
17.9.2014;81.49861;81.04126;80.73303
18.9.2014;81.33952;81.49861;81.04126
19.9.2014;80.24586;81.33952;81.49861
22.9.2014;79.65925;80.24586;81.33952
23.9.2014;80.37511;79.65925;80.24586
24.9.2014;79.29137;80.37511;79.65925
25.9.2014;88.98531;79.29137;80.37511
26.9.2014;88.60749;88.98531;79.29137
29.9.2014;88.68703;88.60749;88.98531
30.9.2014;87.19566;88.68703;88.60749
1.10.2014;88.78646;87.19566;88.68703
2.10.2014;89.77077;88.78646;87.19566
3.10.2014;88.70692;89.77077;88.78646
6.10.2014;87.56353;88.70692;89.77077
7.10.2014;88.31916;87.56353;88.70692
8.10.2014;86.72836;88.31916;87.56353
9.10.2014;86.68859;86.72836;88.31916
10.10.2014;84.89894;86.68859;86.72836
13.10.2014;84.60066;84.89894;86.68859
14.10.2014;84.69015;84.60066;84.89894
15.10.2014;86.53945;84.69015;84.60066
16.10.2014;86.67865;86.53945;84.69015
17.10.2014;88.38876;86.67865;86.53945
20.10.2014;90.11875;88.38876;86.67865
21.10.2014;89.34324;90.11875;88.38876
22.10.2014;89.8503;89.34324;90.11875
23.10.2014;90.37726;89.8503;89.34324
24.10.2014;91.113;90.37726;89.8503
27.10.2014;91.91833;91.113;90.37726
28.10.2014;91.42121;91.91833;91.113
29.10.2014;92.46518;91.42121;91.91833
30.10.2014;92.43535;92.46518;91.42121
31.10.2014;92.91259;92.43535;92.46518
3.11.2014;93.40971;92.91259;92.43535
4.11.2014;94.13551;93.40971;92.91259
5.11.2014;94.05598;94.13551;93.40971
6.11.2014;93.24069;94.05598;94.13551
7.11.2014;94.4139;93.24069;94.05598
10.11.2014;94.33437;94.4139;93.24069
11.11.2014;95.25902;94.33437;94.4139
12.11.2014;95.56724;95.25902;94.33437
13.11.2014;94.9508;95.56724;95.25902
14.11.2014;95.50758;94.9508;95.56724
17.11.2014;95.91522;95.50758;94.9508
18.11.2014;96.39246;95.91522;95.50758
19.11.2014;96.74046;96.39246;95.91522
20.11.2014;96.85976;96.74046;96.39246
21.11.2014;97.38671;96.85976;96.74046
24.11.2014;96.73051;97.38671;96.85976
25.11.2014;97.23758;96.73051;97.38671
26.11.2014;98.71901;97.23758;96.73051
28.11.2014;97.12821;98.71901;97.23758
1.12.2014;97.4762;97.12821;98.71901
2.12.2014;97.93355;97.4762;97.12821
3.12.2014;98.48039;97.93355;97.4762
4.12.2014;98.75877;98.48039;97.93355
5.12.2014;97.15804;98.75877;98.48039
8.12.2014;96.472;97.15804;98.75877
9.12.2014;97.09838;96.472;97.15804
10.12.2014;96.64968;97.09838;96.472
11.12.2014;95.89188;96.64968;97.09838
12.12.2014;95.15402;95.89188;96.64968
15.12.2014;92.94044;95.15402;95.89188
16.12.2014;94.22671;92.94044;95.15402
17.12.2014;96.79925;94.22671;92.94044
18.12.2014;94.56572;96.79925;94.22671
19.12.2014;95.65257;94.56572;96.79925
22.12.2014;95.69246;95.65257;94.56572
23.12.2014;96.01154;95.69246;95.65257
24.12.2014;96.54997;96.01154;95.69246
26.12.2014;97.01862;96.54997;96.01154
29.12.2014;96.59982;97.01862;96.54997
30.12.2014;95.87194;96.59982;97.01862
31.12.2014;94.75517;95.87194;96.59982
2.1.2015;93.2296;94.75517;95.87194
5.1.2015;92.68119;93.2296;94.75517
6.1.2015;94.59564;92.68119;93.2296
7.1.2015;96.7793;94.59564;92.68119
8.1.2015;95.7124;96.7793;94.59564
9.1.2015;95.58278;95.7124;96.7793
12.1.2015;94.73524;95.58278;95.7124
13.1.2015;93.439;94.73524;95.58278
14.1.2015;92.5416;93.439;94.73524
15.1.2015;92.72108;92.5416;93.439
16.1.2015;93.33929;92.72108;92.5416
20.1.2015;93.23958;93.33929;92.72108
21.1.2015;95.57281;93.23958;93.33929
22.1.2015;95.88191;95.57281;93.23958
23.1.2015;96.07136;95.88191;95.57281
26.1.2015;94.22671;96.07136;95.88191
27.1.2015;93.04015;94.22671;96.07136
28.1.2015;94.59564;93.04015;94.22671
29.1.2015;91.98322;94.59564;93.04015
30.1.2015;91.65417;91.98322;94.59564
2.2.2015;93.08003;91.65417;91.98322
3.2.2015;92.27238;93.08003;91.65417
4.2.2015;93.07006;92.27238;93.08003
5.2.2015;91.52455;93.07006;92.27238
6.2.2015;90.90634;91.52455;93.07006
9.2.2015;92.48177;90.90634;91.52455
10.2.2015;91.04594;92.48177;90.90634
11.2.2015;91.73394;91.04594;92.48177
12.2.2015;91.77383;91.73394;91.04594
13.2.2015;91.59435;91.77383;91.73394
17.2.2015;93.34926;91.59435;91.77383
18.2.2015;93.42902;93.34926;91.59435
19.2.2015;94.65546;93.42902;93.34926
20.2.2015;94.73524;94.65546;93.42902
23.2.2015;95.14405;94.73524;94.65546

